Preview of NWS' New Version of Forecast
This preview is not operational and should not be used for support decisions.

Regional Weather Roundup (RWR)

Issued by Gray - Portland, ME (GYX)

                            
195 
ASUS41 KGYX 171710
RWRGYX
WEATHER ROUNDUP FOR MAINE AND NEW HAMPSHIRE
NATIONAL WEATHER SERVICE GRAY ME
1200 PM EST SAT FEB 17 2018

MEZ002-005-006-010-012-015-018-020-021-024-026-027-029-171800-
MAINE
  
CITY           SKY/WX    TMP DP  RH WIND       PRES   REMARKS
PORTLAND       FAIR      29   7  39 VRB5      30.38F                  
SANFORD        FAIR      32   6  33 S6        30.36F                  
BAR HARBOR     FAIR      25   3  38 N8        30.37F                  
WISCASSET      FAIR      28   2  32 VRB6      30.38F                  
ROCKLAND       FAIR      27   6  41 VRB3      30.37F                  
FRYEBURG       FAIR      30   1  29 CALM      30.32F                  
LEWISTONAUBURN FAIR      27   4  37 CALM      30.35F                  
AUGUSTA        FAIR      26   1  34 MISG      30.35F                  
WATERVILLE     FAIR      25   1  35 CALM      30.31F                  
BANGOR         FAIR      23   2  40 NW9       30.37F                  
GREENVILLE       N/A     19  -2  39 VRB3      30.23F                  
MILLINOCKET    FAIR      21  -1  38 VRB7      30.35F                  
HOULTON        FAIR      17  -1  45 SW7       30.30F                  
PRESQUE ISLE   FAIR      17  -2  43 W8        30.30F                  
FRENCHVILLE    FAIR      12  -3  51 W9        30.23S                  
CARIBOU        FAIR      17  -4  39 SW8       30.28F                  
$$

NHZ002-005-008-009-011-012-014-171800-
NEW HAMPSHIRE
  
CITY           SKY/WX    TMP DP  RH WIND       PRES   REMARKS
PORTSMOUTH     PTSUNNY   31   8  38 E8        30.37S                  
ROCHESTER      FAIR      33   7  33 S7        30.34F                  
NASHUA         FAIR      34   7  32 VRB6      30.38F                  
MANCHESTER     FAIR      33   5  30 CALM      30.36F                  
CONCORD        FAIR      30   6  36 S6        30.37R                  
LACONIA        FAIR      28   5  37 SW5       30.34F                  
PLYMOUTH       FAIR      32   1  26 CALM      30.31F                  
BERLIN         FAIR      26   2  35 CALM      30.26F                  
WHITEFIELD     FAIR      28   1  31 CALM      30.26F                  
JAFFREY        FAIR      32   8  36 VRB5      30.29F                  
LEBANON        FAIR      30   6  36 CALM      30.30F                  
MT WASHINGTON  MOSUNNY    9  -8  47 W29         N/A  WCI -14          
$$

VTZ005-007-008-171800-
VERMONT
  
CITY           SKY/WX    TMP DP  RH WIND       PRES   REMARKS
ST JOHNSBURY     N/A     26   4  38 MISG      30.28F                  
MONTPELIER     FAIR      25   6  44 S10       30.29F WCI  15          
BURLINGTON     PTSUNNY   29   8  41 S14       30.28F WCI  18          
$$

MAZ007-012-024-CTZ003-RIZ002-NYZ038-NYZ072-171800-
SOUTHERN NEW ENGLAND AND NY
  
CITY           SKY/WX    TMP DP  RH WIND       PRES   REMARKS
BOSTON         FAIR      32  10  40 SE10      30.40F                  
WORCESTER      FAIR      31  10  41 SE6       30.31F                  
NANTUCKET      FAIR      36  24  62 E6        30.40F                  
PROVIDENCE     PTSUNNY   37  10  32 S7        30.39F                  
HARTFORD       PTSUNNY   34  10  37 S5        30.35F                  
ALBANY         PTSUNNY   32  14  47 S8        30.34F                  
NEW YORK CITY  PTSUNNY   36  20  52 NE9       30.38F                  
$$

ANZ081-ANZ082-ANZ150-NHZ014-MEZ023>029-171800-
COASTAL MARINE OBSERVATIONS
  
STATION/POSITION TIME  TEMP    WIND        PRES    WAVE
                       AIR SEA DIR/SP/G            HT/PER
                 (UTC) (F)     (DEG/KT/KT) (MB)    (FT/S)
MOUNT DESERT ROC 1700   23     340/  9/ 11 1028.7F
MATINICUS ROCK   1700   25     360/  6/  8 1028.4F
ISLE OF SHOALS   1700   29     140/  6/  7 1029.1F
JEFFREYS LEDGE   1636      42                N/A     3/ 5
GEORGES BANK BUO 1550   34 43              1015.4   14/ 8
$$

.............KEY..............
   WCI - WIND CHILL
   TC  - TEMPERATURE IN CELSIUS
   VSB - VISIBILITY IN MILES
   HX  - HEAT INDEX
   FAIR- INDICATES FEW OR NO CLOUDS BELOW 12,000 FT, WITH NO 
         SIGNIFICANT WEATHER AND/OR OBSTRUCTIONS TO VISIBILITY.